KT4FD Weather Reports


Display with metric or nautical units.
time (UTC)temp
F
wind
direction
speed
MPH
gust
MPH
rain 1hr
in
rain 24hr
in
rain mn
in
humidity
%
barometer
mb
20260905210003 86 355 3.0 8.0 0.00 0.00 0.00 69 1013.2
20260905205003 87 355 2.0 3.0 0.00 0.00 0.00 68 1013.1
20260905204003 88 355 2.0 6.0 0.00 0.00 0.00 65 1012.9
20260905203003 90 355 2.0 9.0 0.00 0.00 0.00 63 1012.9
20260905202003 92 355 1.0 9.0 0.00 0.00 0.00 57 1013.1
20260905201003 92 348 2.0 8.0 0.00 0.00 0.00 58 1013.2
20260905164003 89 0 1.0 8.0 0.00 0.00 0.00 63 1014.8
20260905163003 89 0 3.0 6.0 0.00 0.00 0.00 64 1015.1
20260905162003 88 355 2.0 9.0 0.00 0.00 0.00 66 1015.0
20260905161003 88 355 2.0 10.0 0.00 0.00 0.00 66 1015.1
20260905160003 88 355 8.0 12.0 0.00 0.00 0.00 65 1015.3
20260905155002 87 329 2.0 8.0 0.00 0.00 0.00 66 1015.4
20260905133003 74 314 0.0 0.0 0.00 0.00 0.00 91 1016.3
20260905132003 74 314 0.0 1.0 0.00 0.00 0.00 91 1016.3
20260905131003 73 314 0.0 0.0 0.00 0.00 0.00 91 1016.4
20260905130003 72 314 0.0 0.0 0.00 0.00 0.00 91 1016.3
20260905125003 71 314 0.0 0.0 0.00 0.00 0.00 91 1016.2
20260905124003 71 314 0.0 0.0 0.00 0.00 0.00 91 1016.1
20260905123003 71 314 0.0 0.0 0.00 0.00 0.00 91 1016.3
20260905122003 71 314 0.0 2.0 0.00 0.00 0.00 91 1016.3
20260905121003 70 314 0.0 0.0 0.00 0.00 0.00 91 1016.1
20260905120004 70 314 0.0 0.0 0.00 0.00 0.00 91 1016.1
20260905115002 70 314 0.0 0.0 0.00 0.00 0.00 91 1015.9
20260905114003 70 314 0.0 0.0 0.00 0.00 0.00 91 1015.8
20260905103003 70 314 0.0 0.0 0.00 0.00 0.00 91 1015.3
20260905102003 70 314 0.0 0.0 0.00 0.00 0.00 91 1015.2
20260905101003 70 314 0.0 0.0 0.00 0.00 0.00 91 1015.3
20260905100004 70 314 0.0 0.0 0.00 0.00 0.00 91 1015.1
20260905095003 70 314 0.0 0.0 0.00 0.00 0.00 91 1015.0
20260905094003 70 314 0.0 0.0 0.00 0.00 0.00 91 1015.0
20260905093003 70 314 0.0 0.0 0.00 0.00 0.00 91 1015.0
20260905092003 70 314 0.0 0.0 0.00 0.00 0.00 91 1015.1
20260905091003 70 314 0.0 0.0 0.00 0.00 0.00 91 1015.2
20260905090004 70 314 0.0 0.0 0.00 0.00 0.00 91 1015.1
20260905085003 70 314 0.0 0.0 0.00 0.00 0.00 91 1015.2
20260905084003 70 314 0.0 0.0 0.00 0.00 0.00 91 1015.2
20260905083003 71 314 0.0 0.0 0.00 0.00 0.00 91 1015.2
20260905061003 72 314 0.0 1.0 0.00 0.00 0.00 90 1015.5
20260905060003 72 314 0.0 1.0 0.00 0.00 0.00 90 1015.4
20260905055003 72 314 0.0 1.0 0.00 0.00 0.00 91 1015.5
20260905054003 72 314 0.0 3.0 0.00 0.00 0.00 91 1015.5
20260905053003 72 314 0.0 1.0 0.00 0.00 0.00 91 1015.5
20260905052004 72 314 0.0 0.0 0.00 0.00 0.00 91 1015.7
20260905031004 74 314 0.0 0.0 0.00 0.00 0.00 88 1016.6
20260905030004 74 314 0.0 0.0 0.00 0.00 0.00 88 1016.7
20260905025003 74 314 0.0 1.0 0.00 0.00 0.00 90 1016.9
20260905024004 75 314 0.0 0.0 0.00 0.00 0.00 90 1017.0
20260905023003 75 314 0.0 0.0 0.00 0.00 0.00 90 1016.9
20260905022003 75 314 0.0 0.0 0.00 0.00 0.00 89 1016.8
20260905021004 75 314 0.0 0.0 0.00 0.00 0.00 89 1016.8
20260905010003 78 314 0.0 0.0 0.00 0.00 0.00 87 1016.4
20260905005004 79 314 0.0 0.0 0.00 0.00 0.00 85 1016.2
20260905004004 79 314 0.0 0.0 0.00 0.00 0.00 84 1016.3
20260905003003 80 314 0.0 0.0 0.00 0.00 0.00 83 1016.1